COSMOS 2535 DEB, 44641

Orbit data source: Space-Track

COSMOS 2535 DEB, 44641 is space debris in SSO originally from a launch on Wed, 10 Jul 2019 UTC launched from the Plesetsk Missile And Space Complex (PKMTR). Debris objects in space refer to the collection of defunct objects orbiting the Earth. Examples of debris include non-operational satellites, rocket bodies, and fragments generated from explosions, collisions, or faulty payload assembly.

Loading next visibility...
Identifier
44641, 2019-039M
Orbit
SSO
Country
Flag of CISCIS
Related business
Manufacturer
Unknown
Mission
Spacecraft
Bus & Motor
Unknown
Mass
Unknown
Launch date (UTC)
2019-07-10 (7 years ago)
Launch vehicle
Unknown
Launch site
Plesetsk Missile And Space Complex (PKMTR)
Object type
Payload
Rocket body
Debris
Shape & HBR
Unknown shape, 0.1 m
Radar Cross Section
Medium (>0.1 m² and <1 m²)

Expand to show TLE details & history
Last TLE update: 2 days ago

TLE from 2 days ago
0 COSMOS 2535 DEB
1 44641U 19039M   26171.16275447  .00016594  00000-0  52890-3 0  9996
2 44641  97.5522 245.1389 0013132 319.5580  40.4685 15.32530513367588
Epoch: 2026-06-20T03:54Z
TLE epoch observation values (Epoch: 2026-06-20T03:54:21.986Z)
Latitude
0.00006°
Longitude
-81.83405°
Altitude
464.532 km
Speed
7.638 km/s
True Right ascension
16h 20m 33s
True Declination
0° 00' 00"
Sunlit
Object was in full shadow at epoch
Visualization orbit readout
Latitude
Unknown
Longitude
Unknown
Altitude
Unknown
Speed
Unknown
Apparent Right ascension
Unknown
Apparent Declination
Unknown
Sunlit
N/A
Visualization observer readout
Local Sidereal Time
23:18:56
Azimuth
Unknown
Elevation
Unknown
Doppler factor
Unknown
Orbital elements
Apogee altitude
474.208 km
Perigee altitude
456.234 km
Semi-major axis
6,843.358 km
Eccentricity
0.00131
Inclination
97.5522°
RAAN
245.1389°
Arg. of periapsis
319.558°
True anomaly
40.56629°
Mean anomaly
40.4685°
Eccentric anomaly
40.51738°
Mean motion
3.83389 °/min
Orbital period
93.9 mins
BSTAR
0.0005289
Loading maneuver chart data...
Computing Atmospheric mass density...

Documentation

Showing up to 5 results
|